Location: *
(51.1248°S, 108.4023°W)
Time: 08:30:18
(UTC+00:00)

Cosmos 1975 - Visible Passes

Search period start: 28 October 2021 00:00
Search period end: 07 November 2021 00:00
Orbit: 542 x 559 km, 82.5° (Epoch: 27 October)

Date Brightness Start Highest point End Pass type
(mag) Time Alt. Az. Time Alt. Az. Time Alt. Az.
28 Oct 4.5 08:36:43 22° ENE 08:38:09 27° E 08:41:35 10° SSE visible
28 Oct 3.8 10:12:26 20° WNW 10:14:29 32° WSW 10:18:11 10° S visible
29 Oct 4.4 08:32:39 24° ENE 08:33:55 29° E 08:37:28 10° SSE visible
29 Oct 3.9 10:08:23 20° WNW 10:10:20 30° WSW 10:13:57 10° S visible
30 Oct 4.2 08:28:35 27° ENE 08:29:42 31° E 08:33:20 10° SSE visible
30 Oct 4.0 10:04:19 20° WNW 10:06:10 28° WSW 10:09:42 10° S visible
31 Oct 4.1 08:24:30 29° ENE 08:25:29 34° E 08:29:11 10° SSE visible
31 Oct 4.2 10:00:14 19° WNW 10:01:59 26° WSW 10:05:28 10° S visible
01 Nov 3.9 08:20:24 32° ENE 08:21:16 37° E 08:25:02 10° SSE visible
01 Nov 4.3 09:56:07 19° WNW 09:57:49 24° WSW 10:01:11 10° SSW visible
02 Nov 3.7 08:16:16 36° ENE 08:17:03 40° E 08:20:52 10° SSE visible
02 Nov 4.4 09:51:59 18° WNW 09:53:39 23° WSW 09:56:55 10° SSW visible
03 Nov 3.6 08:12:08 39° ENE 08:12:49 43° E 08:16:42 10° SSE visible
03 Nov 4.5 09:47:51 17° W 09:49:29 21° WSW 09:52:38 10° SSW visible
04 Nov 3.4 08:07:58 43° ENE 08:08:36 47° E 08:12:31 10° SSE visible
04 Nov 4.6 09:43:41 16° W 09:45:19 20° WSW 09:48:20 10° SSW visible
05 Nov 3.3 08:03:48 47° NE 08:04:23 51° E 08:08:20 10° SSE visible
05 Nov 4.7 09:39:31 15° W 09:41:08 18° WSW 09:44:02 10° SSW visible
06 Nov 3.1 07:59:36 51° NE 08:00:09 56° E 08:04:09 10° SSE visible
06 Nov 4.8 09:35:20 14° W 09:36:58 17° WSW 09:39:42 10° SSW visible
